Location: Anuling
(14.1239°N, 120.8922°E)
Time: 12:18:27
(UTC+00:00)

Cosmos 2218 Rocket - Pass Details

Date: 15 April 2026
Orbit: 955 x 1005 km, 82.9° (Epoch: 11 May)

Event Time Altitude Azimuth Distance (km) Brightness Sun altitude
Exits shadow 13:02:31 23° 255° (WSW) 1,924 5.8 -40.6°
Maximum altitude 13:04:00 25° 277° (W) 1,828 5.8 -40.9°
Drops below altitude 10° 13:08:53 10° 330° (NNW) 2,680 6.8 -42.0°
Sets 13:11:52 0° 344° (NNW) 3,624 7.5 -42.6°
